Theta_e
314 315 317 314 311 312 316 321 322 321 318 324 326 326 327 327 327 326 324 324 324 323 322 323 324 325 322 318 318 313 319 322 323 320 320 316 320 319 320 329 327 327 326 327 333
315 313 314 316 313 312 313 317 321 323 321 318 324 326 326 326 326 325 325 324 323 322 323 323 322 323 321 321 320 319 319 320 321 316 316 314 318 321 325 327 328 329 329 329 334
317 315 312 315 316 313 312 314 317 320 322 320 319 323 325 325 324 324 325 325 324 322 323 324 324 322 324 320 321 321 323 320 322 316 319 313 318 317 324 327 324 327 329 329 332
316 316 315 314 315 316 312 311 315 318 322 322 319 322 323 324 326 322 323 324 323 322 323 324 323 324 322 323 319 326 324 322 323 324 323 321 312 316 322 324 319 322 326 329 332
314 316 316 314 315 315 315 311 312 316 319 322 321 320 323 322 322 320 320 323 323 322 322 323 324 323 323 321 321 323 322 320 322 322 322 318 315 313 315 316 318 320 326 329 332
312 314 316 315 315 315 316 312 311 314 316 320 321 320 322 323 321 320 319 322 322 321 322 323 322 320 321 322 321 320 320 319 321 322 321 318 316 316 315 314 322 325 327 327 330
310 312 314 316 313 315 315 314 312 309 314 315 320 320 321 320 319 320 320 321 322 321 318 323 322 321 319 322 320 323 326 322 322 321 321 313 319 315 314 317 318 324 325 325 326
309 312 313 315 315 314 314 314 313 311 311 313 318 320 321 319 319 320 320 322 322 321 321 321 321 317 320 317 318 324 322 325 320 322 322 318 329 321 315 318 318 320 324 325 325
308 309 311 315 315 313 313 314 314 312 310 311 317 318 320 318 319 320 321 321 320 320 320 319 318 317 317 318 320 319 319 322 321 319 322 316 323 319 314 316 317 316 321 324 325
306 308 308 313 315 313 313 313 313 313 313 311 315 317 316 318 318 318 320 320 320 319 319 319 318 318 316 320 324 320 323 320 321 317 318 321 318 318 315 314 314 313 313 320 324
305 305 307 309 311 314 313 314 313 312 313 310 313 314 315 316 318 318 319 319 319 321 323 320 324 325 322 317 316 316 320 320 318 317 318 317 317 317 315 315 314 314 314 313 313
305 306 305 305 307 313 313 314 309 306 310 309 312 313 315 316 317 317 318 320 320 324 321 322 324 318 316 319 320 318 319 320 318 317 318 318 319 318 315 316 315 316 315 315 315
305 305 305 305 307 308 314 313 307 306 306 309 311 313 314 315 315 317 317 318 320 321 322 322 320 318 318 318 321 320 324 322 321 318 316 315 317 317 315 314 314 314 315 315 315
305 305 304 305 307 308 314 312 307 306 308 311 312 311 313 312 316 315 316 317 318 319 321 321 318 319 319 320 320 324 318 321 322 323 324 316 323 317 315 315 314 314 313 313 314
304 305 304 304 306 306 313 309 307 306 310 308 310 309 309 313 313 315 315 315 319 319 318 318 318 320 322 320 318 322 317 319 320 322 321 320 324 319 315 316 314 313 313 312 313
303 304 304 305 305 306 311 308 307 308 310 311 310 312 312 311 313 316 317 313 314 318 316 316 315 317 316 316 316 315 317 318 317 320 325 319 320 317 315 313 314 313 313 312 312
303 302 304 304 306 305 309 308 310 311 306 310 310 312 311 313 314 315 318 319 319 318 320 318 318 317 314 317 316 317 320 323 325 323 321 313 318 318 313 312 314 314 313 313 311
303 303 304 303 304 306 308 309 312 307 306 308 310 311 312 313 313 313 315 317 316 314 318 320 321 318 316 316 318 319 318 319 318 318 316 311 318 314 311 312 311 310 310 310 309
303 303 303 303 304 306 310 311 308 307 307 310 310 311 312 312 314 313 314 315 316 312 317 317 315 313 316 317 315 318 319 315 318 299 314 315 312 311 310 310 310 311 312 312 311
303 302 303 303 304 307 307 309 304 303 307 309 310 309 312 313 313 313 315 313 314 313 310 312 316 314 314 313 314 317 317 322 320 320 318 314 313 316 312 312 311 311 311 310 308
302 303 303 303 305 307 309 305 303 305 308 308 308 308 308 312 310 312 312 308 312 314 311 312 311 316 314 315 315 316 319 319 319 319 318 314 315 307 312 311 309 309 309 306 304
303 303 304 304 304 302 308 305 305 306 303 304 305 305 308 310 310 311 310 307 307 313 315 312 311 312 315 313 311 314 316 318 322 319 320 320 319 309 308 307 307 305 303 302 301
302 301 304 304 305 307 303 306 304 305 304 305 305 306 307 309 311 309 308 305 307 312 313 312 313 311 310 306 311 316 316 316 316 315 317 317 314 304 306 307 306 306 308 305 302
301 305 305 304 302 305 307 307 304 301 302 302 304 307 308 308 305 307 309 307 306 309 311 310 309 307 309 305 308 312 313 315 318 319 316 315 314 310 310 312 313 312 312 311 310
302 304 302 307 304 307 307 307 306 303 301 303 306 308 308 308 308 308 307 307 307 310 310 309 308 309 309 308 310 310 311 312 316 315 312 312 309 308 309 311 310 309 307 309 310
301 303 303 303 304 307 308 306 306 300 301 302 306 306 305 307 307 310 308 308 309 309 310 311 311 310 310 310 310 311 309 309 311 313 313 313 313 308 309 308 308 308 309 309 309
297 299 305 305 306 307 306 306 302 300 300 303 303 304 304 303 304 303 302 303 305 307 308 312 310 311 310 308 309 307 308 308 309 310 311 312 311 309 309 310 311 310 310 309 308
Wind_Speed
34 33 31 29 30 29 27 26 24 24 26 25 23 22 18 16 12 9 6 6 6 6 2 2 1 4 5 3 4 0 3 2 3 5 4 1 2 1 1 5 2 4 2 1 15
37 35 34 32 32 31 29 28 27 25 24 25 25 24 20 19 14 13 17 10 7 5 3 2 2 2 3 2 2 3 3 5 2 2 2 3 2 5 2 2 3 2 2 4 24
39 38 35 36 33 32 31 29 28 26 24 23 24 23 23 19 2 8 24 22 13 9 3 4 6 3 3 1 1 3 3 1 2 1 2 4 1 2 5 3 6 7 6 12 17
39 41 39 38 37 33 32 31 29 26 24 23 21 22 22 16 9 3 19 23 15 11 8 6 4 3 3 3 1 3 4 4 3 2 5 4 6 3 5 5 1 6 5 14 17
35 40 42 39 40 37 34 32 31 28 25 24 21 22 14 3 10 2 5 18 21 14 13 5 4 4 4 4 3 3 3 2 2 6 5 5 5 5 6 6 2 3 7 12 17
31 37 42 41 41 39 36 34 32 31 27 25 24 22 13 19 9 9 3 17 20 19 12 10 7 5 4 3 4 2 2 4 3 2 4 3 4 1 3 3 1 3 7 7 14
33 34 39 42 40 41 38 35 32 32 28 24 24 26 11 17 10 19 13 15 24 20 8 8 10 4 6 4 2 1 3 5 3 2 4 4 6 8 6 1 5 6 6 7 10
33 31 36 40 42 40 39 36 33 28 29 23 21 21 7 20 9 13 16 12 18 18 13 10 9 5 3 3 4 1 3 0 2 3 4 6 10 3 7 4 8 7 6 7 9
33 32 29 38 42 40 39 36 30 25 25 21 15 11 3 16 19 15 12 17 18 14 12 12 6 4 2 6 3 3 4 4 6 5 1 6 6 4 1 6 8 6 7 7 8
36 32 30 27 41 42 39 35 27 19 15 15 9 7 7 9 13 17 13 15 7 14 6 4 3 4 0 4 11 6 4 3 3 2 1 3 11 8 6 2 6 8 7 8 10
37 38 34 30 26 44 41 31 8 5 19 12 8 2 8 15 19 12 13 7 6 4 9 5 6 17 13 4 5 6 3 3 2 3 2 4 8 14 10 6 7 9 10 10 13
38 36 39 36 31 32 44 18 17 9 11 12 1 8 5 9 7 4 13 9 8 10 8 5 17 8 9 8 5 5 3 2 4 2 1 6 11 15 8 11 11 14 13 14 12
38 38 38 36 29 30 51 40 36 27 6 7 4 7 5 7 5 16 18 6 2 8 14 12 3 12 8 4 7 4 9 3 5 6 3 6 8 11 7 6 8 11 14 13 14
36 37 39 33 23 32 37 42 40 12 4 7 11 5 5 5 3 4 18 7 5 13 8 6 1 11 7 6 7 8 5 4 3 1 6 2 7 9 5 9 7 11 10 13 15
35 37 39 39 12 10 35 51 40 4 9 12 8 10 7 9 6 6 3 1 8 7 6 3 7 7 5 5 6 3 6 7 4 2 3 5 4 8 2 6 8 9 11 12 14
38 36 38 34 34 17 38 51 18 7 8 10 11 13 12 6 3 6 5 4 4 3 5 3 1 6 8 4 7 7 5 3 2 2 5 7 9 5 5 5 4 8 11 10 10
41 40 38 34 22 29 37 23 10 9 6 13 18 20 21 12 11 11 17 13 9 6 10 5 4 2 5 6 2 4 6 1 3 4 7 2 5 13 9 6 7 9 11 12 7
42 41 37 37 33 28 28 14 11 10 15 8 20 22 15 17 9 10 17 14 9 6 4 9 6 9 4 6 7 8 7 4 5 4 4 2 8 6 14 14 9 9 14 11 10
41 36 35 38 37 32 14 17 9 18 14 20 21 24 10 15 9 7 13 19 18 11 8 4 3 3 2 4 6 4 8 6 2 2 1 4 9 10 8 11 8 14 9 11 7
38 27 26 34 36 26 14 8 4 7 15 21 17 16 21 25 11 11 17 15 11 13 4 7 4 1 3 4 3 2 4 3 4 4 5 5 6 12 7 14 13 7 9 6 6
29 11 24 39 29 7 16 5 5 7 24 11 10 10 12 26 17 17 18 1 9 13 6 5 4 3 6 5 9 2 3 2 2 3 4 2 7 7 12 12 9 7 5 6 9
10 6 32 36 10 3 9 11 7 17 4 5 6 6 13 22 7 11 8 2 9 16 14 2 3 4 2 3 4 6 9 6 3 3 3 2 10 6 9 3 4 7 8 6 7
10 4 30 27 10 6 6 9 7 12 4 5 5 4 15 15 7 6 5 3 7 17 18 9 4 4 2 3 3 6 7 6 4 3 9 3 9 3 7 7 6 9 15 9 6
5 6 6 8 2 11 15 19 11 6 6 8 7 19 13 14 6 6 4 2 1 6 9 11 4 6 8 5 6 6 7 14 14 5 6 17 30 13 15 16 19 20 21 22 15
2 3 1 13 8 19 13 25 22 7 4 6 4 16 17 6 4 5 5 4 4 9 4 5 5 3 1 5 3 4 6 12 16 20 9 24 17 3 5 7 7 8 10 18 19
5 5 4 10 15 23 20 16 25 5 4 3 12 12 9 12 8 12 8 4 4 1 5 0 5 4 2 2 4 6 8 9 11 11 16 15 31 7 3 6 7 12 14 16 18
3 3 10 17 14 18 7 11 11 10 10 10 21 12 8 6 9 8 6 5 9 8 4 7 5 3 2 1 3 7 15 12 8 12 16 18 35 16 9 15 18 20 19 18 17
Wind_Direction
237 235 235 236 237 236 232 228 230 231 225 221 219 219 217 208 203 205 238 222 222 247 290 215 29 40 76 78 74 156 70 205 238 184 249 14 211 330 20 120 241 181 166 188 166
236 237 236 232 234 234 232 231 229 229 227 222 221 222 219 216 205 225 224 232 231 231 244 166 110 40 54 72 48 96 133 216 251 248 279 306 221 187 159 127 235 234 166 150 161
234 235 236 232 231 233 232 229 230 230 225 222 221 220 223 216 70 232 230 232 243 233 224 139 118 84 87 83 94 130 199 259 290 300 17 308 245 212 145 237 221 207 170 159 169
237 232 233 229 228 229 233 229 227 226 223 224 220 218 218 190 235 191 223 222 219 208 190 131 74 89 124 169 122 136 232 203 293 37 355 321 316 247 200 223 311 229 159 166 180
243 235 230 229 224 225 228 228 224 223 221 219 219 213 191 181 232 302 226 204 199 194 189 155 141 139 176 154 126 161 245 198 294 290 280 295 267 265 247 252 14 109 175 186 189
246 239 232 230 223 221 221 227 224 222 219 214 212 203 196 228 247 224 219 191 187 186 180 167 177 169 119 128 170 188 271 275 272 257 268 266 273 310 304 154 158 171 218 210 202
242 237 233 227 227 219 221 222 224 222 218 215 210 197 209 222 202 215 219 203 195 191 160 168 153 149 136 137 195 172 313 329 245 226 239 175 278 223 244 182 232 232 225 232 224
235 235 233 227 224 221 221 219 219 219 216 214 206 197 248 202 212 186 185 182 189 189 191 154 144 101 113 123 48 111 63 185 281 184 254 147 261 244 245 207 251 253 245 240 233
235 240 241 226 221 220 218 218 212 215 213 205 195 198 232 200 209 190 189 173 156 143 150 141 115 119 105 111 51 14 227 205 313 209 251 183 270 264 9 207 249 255 261 249 260
233 232 229 225 220 217 213 211 201 187 186 190 204 181 205 186 160 197 200 176 150 135 102 108 106 120 72 147 212 178 216 248 228 337 315 268 262 258 281 197 262 273 265 261 259
228 229 224 227 226 211 201 180 171 151 182 189 202 138 139 152 154 165 171 135 129 173 176 178 177 206 196 159 121 130 155 194 244 290 293 251 266 277 273 264 254 251 257 254 246
226 223 226 227 235 218 193 192 166 157 180 234 0 154 131 152 146 158 174 176 182 181 127 153 211 175 143 158 133 131 137 233 277 349 229 290 276 278 250 256 235 244 245 249 245
223 220 220 222 235 243 191 189 163 147 131 210 191 182 161 153 137 182 174 177 290 152 182 185 190 143 138 150 155 171 223 197 252 327 292 315 274 261 258 253 252 247 244 251 244
222 219 213 207 220 238 196 180 165 165 120 174 195 212 137 118 204 148 178 169 172 195 200 204 82 148 155 175 154 224 167 243 280 320 270 13 295 267 229 252 246 257 233 242 249
218 217 211 202 206 216 187 172 168 117 182 166 169 157 132 161 122 188 168 103 155 142 143 201 157 134 155 163 154 205 152 184 186 204 329 223 261 271 292 252 262 263 256 240 241
215 213 209 203 208 221 184 164 134 152 185 167 148 163 139 158 166 127 147 71 80 107 81 160 359 157 164 129 157 142 98 89 82 123 251 203 193 250 238 215 238 257 264 260 244
213 215 207 197 204 210 178 150 169 195 133 162 169 161 168 169 160 179 178 177 166 162 170 154 159 137 133 115 87 151 134 220 217 199 243 323 203 248 278 252 234 243 260 263 261
205 204 205 204 204 199 202 159 186 152 161 182 155 151 172 143 185 180 180 186 173 130 156 162 179 164 180 169 161 176 178 175 209 204 273 315 242 255 230 258 258 256 256 275 274
198 200 198 197 197 204 195 188 156 158 157 152 140 153 151 168 132 153 191 195 190 180 142 141 153 28 108 122 136 186 203 199 9 62 306 222 285 279 254 274 273 258 263 271 305
186 195 202 189 196 202 181 160 132 140 134 143 146 172 163 175 153 161 176 195 186 179 143 187 121 177 156 78 50 143 139 133 189 215 226 255 264 235 303 285 276 272 265 304 306
175 184 181 189 182 210 197 132 138 151 139 154 139 148 169 172 176 180 177 3 159 168 113 139 105 125 122 186 171 118 177 185 250 204 212 293 258 212 216 242 278 292 329 317 307
169 178 158 163 183 199 169 141 139 141 91 91 86 72 165 165 140 167 197 174 177 161 163 98 107 146 156 53 182 160 180 181 209 192 220 285 265 211 229 254 356 330 300 299 288
153 139 161 167 186 159 127 133 107 140 90 119 113 113 143 155 134 126 154 321 166 165 163 157 162 125 54 8 15 202 200 193 198 134 225 217 254 349 61 22 341 321 318 302 257
134 150 149 183 218 133 138 138 120 37 55 71 100 116 121 150 47 126 139 86 166 156 141 143 149 159 194 192 142 179 196 201 208 211 226 230 265 264 306 317 313 313 315 313 310
87 177 200 170 164 143 143 146 141 133 69 107 73 145 143 137 94 124 108 118 58 153 137 129 160 140 218 112 98 191 191 195 206 223 204 256 284 235 262 270 271 280 286 294 297
124 155 95 122 164 139 137 159 139 99 104 106 136 145 141 159 159 154 126 134 165 84 126 212 132 132 210 197 244 251 226 230 231 241 255 274 273 71 295 312 277 266 272 280 283
194 165 121 142 164 139 134 141 144 129 23 119 125 108 96 139 128 137 98 100 144 144 121 142 129 108 208 232 180 280 232 221 220 223 235 242 255 284 270 276 271 273 280 282 277